Вернуться в каталог

FENGYUN 1C DEB

АктивенPO
NORAD 31754·DEBRIS·🇨🇳 China

Запущен May 10, 1999 с Taiyuan Satellite Launch Center

Loading…

Ближайшие Пролёты (ближайшие 24 часа)

TLE

СвежийSource: Space-Track

Эпоха: Sep 13, 2026, 04:28 UTC

1 31754U 99025CFD 26256.18612602  .00001659  00000-0  49390-3 0  9991
2 31754  99.0626 243.5214 0049835 124.0491 236.5444 14.43875808  9145

Отслеживайте FENGYUN 1C DEB в реальном времени с AllMySat

Download on the App Store